Regional Weather Roundup
Issued by NWS Wakefield, VA

Home | Current Version | Previous Version | Graphics & Text | Print | Product List | Glossary On
Versions: 1 2 3 4 5 6 7 8 9 10 11 12 13 14 15 16 17 18 19 20 21 22 23 24 25 26 27 28
000
ASUS41 KAKQ 231110
RWRAKQ

REGIONAL WEATHER ROUNDUP
NATIONAL WEATHER SERVICE WAKEFIELD VA
700 AM EDT THU OCT 23 2014

Note: "fair" indicates few or no clouds below 12,000 feet with no
significant weather and/or obstructions to visibility. * = Denotes
station may not report precipitation (e.g., rain,snow,etc.),
thunder or fog.

VAZ042-051-052>054-056-231200-
NORTHERN VIRGINIA

CITY           SKY/WX    TMP DP  RH WIND       PRES   REMARKS
WASH NATIONAL  CLOUDY    55  41  59 NW17G28   29.90R
DULLES         MOCLDY    51  41  68 NW16G25   29.92R
FORT BELVOIR   CLOUDY    53  42  65 NW15G23   29.90S
QUANTICO       MOCLDY    52  41  66 NW14G24   29.92R
FREDERICKSBRG* PTCLDY    53  43  69 NW12      29.92R
STAFFORD*      MOCLDY    50  41  70 NW7       29.96R
WARRENTON      CLOUDY    53  47  79 NW13G20   29.93R
CULPEPER*      MOCLDY    54  43  66 N7        29.95R
MANASSAS*      CLOUDY    52  43  71 NW14G23   29.93R
LEESBURG*      CLOUDY    52  45  76 NW14G25   29.94R
WINCHESTER     CLOUDY    52  37  58 NW18G25   29.97R
FRONT ROYAL*   CLOUDY    50  41  71 W7        29.98R
LURAY*         CLOUDY    52  43  71 W9G24     29.99S
$$

VAZ048-049-060>072-079>083-231200-
CENTRAL AND SOUTH CENTRAL VIRGINIA...AND NORTH CENTRAL NORTH CAROLINA

CITY           SKY/WX    TMP DP  RH WIND       PRES   REMARKS
RICHMOND       MOCLDY    52  41  66 W10       29.93S
CHESTERFIELD*  CLOUDY    46  34  61 W8        29.96R
PETERSBURG*    CLOUDY    48  40  73 W7        29.95S
HANOVER        CLOUDY    48  42  80 W8        29.95R
TAPPAHANNOCK*  CLOUDY    53  39  60 W8        29.91R
CHARLOTTSVILLE PTCLDY    52  38  58 NW8G18    29.96R
ORANGE*        MOCLDY    52  41  66 W13G18    29.96S
LOUISA*        PTCLDY    43  39  87 W5        29.94R
FARMVILLE*     CLEAR     45  39  81 CALM      29.96R
CREWE*         SUNNY     46  39  78 W3        29.96S
FORT PICKETT*  SUNNY     44  40  86 W8        29.96S
LUNENBURG*     SUNNY     44  41  88 NW3       29.97R
SOUTH HILL*    CLEAR     46  43  87 W3        30.03R
LAWRENCEVILLE* SUNNY     42  40  95 W3        29.96R
ROANOKE RAPIDS SUNNY     45  41  87 CALM      29.98R
RALEIGH        CLEAR     45  39  79 CALM      30.02R
$$

VAZ088>098-231200-
SOUTHEAST VIRGINIA

CITY           SKY/WX    TMP DP  RH WIND       PRES   REMARKS
NORFOLK        CLOUDY    54  42  64 NW10G21   29.89R
VIRGINIA BEACH CLOUDY    55  43  63 NW14      29.86S
NORFOLK NAVAL  MOCLDY    55  43  63 NW18G26   29.90S
WEST POINT*    CLOUDY    55  42  63 NW6G17    29.92R
NEWPORT NEWS   MOCLDY    54  43  66 NW13      29.90R
LANGLEY AFB    CLOUDY    52  43  71 W14G21    29.89R
FORT EUSTIS    MOCLDY    53  41  65 NW20G25   29.89R
WILLIAMSBURG*  CLEAR     54  45  71 NW14G22   29.91S
HR EXEC AP*    CLOUDY    50  43  76 W7        29.93R
FRANKLIN*      CLOUDY    48  43  81 W9G16     29.94R
WAKEFIELD      CLOUDY    50  42  74 VRB5      29.93R
$$

VAZ020-022-025-037-045-231200-
WEST CENTRAL AND SOUTHWEST VIRGINIA

CITY           SKY/WX    TMP DP  RH WIND       PRES   REMARKS
STAUNTON*      CLOUDY    47  38  72 CALM      30.04S
HOT SPRINGS VA CLOUDY    38  37  92 NW22G28   30.02R
LYNCHBURG      CLEAR     42  37  82 SE3       30.03R
DANVILLE       CLEAR     44  38  79 W5        30.03R
SOUTH BOSTON*  NOT AVBL
MARTINSVILLE   CLEAR     48  39  70 NW13      30.05S
ROANOKE        PTCLDY    49  37  63 NW12G24   30.08S
BLACKSBURG     CLOUDY    45  41  87 NW7       30.11F
DUBLIN*        CLOUDY    46  39  76 NW7       30.13S
MARION*        CLOUDY    44  37  77 NW7       30.16S
HILLSVILLE*    CLOUDY    42  37  81 NW21G26   30.09S
RICHLANDS*     CLOUDY    44  40  86 NW6       30.17S
WISE*          CLOUDY    41  39  93 N10       30.20S
ABINGDON*      CLOUDY    46  40  78 CALM      30.18R
$$

MDZ021>025-VAZ099-100-231200-
SOUTHERN MARYLAND AND THE DELMARVA PENINSULA

CITY           SKY/WX    TMP DP  RH WIND       PRES   REMARKS
PATUXENT RIVER CLOUDY    54  43  66 NW25G31   29.85R
BAY BRIDGE APT   N/A     54  45  71 NW15G26   29.84S
LEONARDTOWN    CLOUDY    52  41  66 NW8       29.88R
DOVER          CLOUDY    53  46  76 NW20      29.75F
GEORGETOWN     CLOUDY    53  45  74 NW6       29.78S
EASTON         CLOUDY    55  48  76 NW15G22   29.86R
CAMBRIDGE      CLOUDY    55  45  67 NW10G22   29.82R VSB<1/4
SALISBURY      CLOUDY    55  46  71 NW13G21   29.79S
OCEAN CITY     CLOUDY    52  46  80 NW10      29.77R
WALLOPS ISLAND CLOUDY    53  47  79 NW14G22   29.80R
ACCOMACK*      CLOUDY    54  45  71 NW15G24   29.82R
$$

NCZ012>017-030>032-231200-
EASTERN NORTH CAROLINA

CITY           SKY/WX    TMP DP  RH WIND       PRES   REMARKS
ELIZABETH CITY PTCLDY    51  43  74 W14       29.91R
AHOSKIE*       CLEAR     45  42  89 CALM      29.96S
EDENTON*       CLEAR     50  44  80 NW9G17    29.93S
CURRITUCK*     CLOUDY    51  43  73 W9        29.90R
KILL DEVIL HLS PTCLDY    53  45  74 W14G24    29.88R
MANTEO         CLEAR     53  45  73 NW14G22   29.89S
CAPE HATTERAS  MOCLDY    54  46  74 NW16G25   29.90S
TARBORO*       SUNNY     46  42  86 W7        29.99R
GOLDSBORO      CLEAR     47  46  97 W7        29.99R
WASHINGTON     CLEAR     47  42  83 NW5       29.97S
GREENVILLE     CLEAR     46  43  87 W5        30.00S
NEW BERN       CLEAR     50  43  77 NW8       29.99R
WILMINGTON     CLEAR     47  42  83 NW7       30.00S
$$

VAZ048-231200-
ELSEWHERE

CITY           SKY/WX    TMP DP  RH WIND       PRES   REMARKS
HARRISBURG PA  CLOUDY    53  41  63 NW14G21   29.87F
BALTIMORE      MOCLDY    53  43  68 NW12G17   29.86S
ANNAPOLIS      CLOUDY    54  44  69 NW13      29.85R
ANDREWS AFB    CLOUDY    52  43  70 NW15      29.88R
WILMINGTON DE  LGT RAIN  52  45  77 NW15      29.80R
PHILADELPHIA   RAIN      51  45  79 NW17G23   29.77S
WILDWOOD NJ*   CLOUDY    54  43  66 NW9G21    29.75R
ATLANTIC CITY  CLOUDY    51  48  89 NW15      29.71S
HENDERSON NC   CLEAR     47  38  73 W7        30.00R
GREENSBORO     CLEAR     42  38  85 NW3       30.03R
ROCKY MOUNT    CLEAR     48  41  76 W8        29.99R
FAYETTEVILLE   CLEAR     50  41  71 NW8       30.02R
CHARLOTTE      CLEAR     41  36  82 NW6       30.09R
$$

VAZ100-231200-
MARINE

STATION/POSITION TIME  TEMP    WIND        PRES    WAVE   SWELL
                       AIR SEA DIR/SP/G            HT/PER HT/PER
                 (UTC) (F)     (DEG/KT/KT) (MB)    (FT/S) (FT/S)
44066 TX TWR #4  1100   60 67   10/ 25/ 33  999.1R  12/ 8
CAPE MAY NJ      1100   55 65  330/  8/ 18 1006.5R
LEWES DE         1100   55 60  330/ 25/ 32 1007.3R
15NM E FENWICK I 1100   57 65  320/ 27/ 33 1005.5R   9/ 6   2/15
OCEAN-CITY-INLET 1100   53 63  330/ 14/ 17 1007.3S
WACHAPREAGUE VA  1100   55 60  310/  5/ 16 1009.8R
THOMAS POINT MD  1100   54 61  310/ 16/ 20 1011.5R
GOOSES REEF MD   1100   55     340/ 21/ 27 1010.8R
COVE POINT MD    1100   54     330/ 22/ 27 1010.3R
SOLOMONS ISLAND  1100      64                N/A
BISHOPS HEAD MD  1100   54 55  320/ 18/ 25 1009.6S
PINEY POINT MD   1100          330/ 26/ 28   N/A
POTOMAC MD       1100   55     330/ 21/ 25 1010.3R
CAMBRIDGE MD     1100   55 60  320/ 18/ 25 1009.5S
LEWISETTA VA     1100   54 60  320/ 16/ 22 1011.1R
RAPPAHANNOCK LGT 1100          310/ 25/ 27 1011.1R
STINGRAY PT      1100   55     320/ 21/ 25 1011.6R
YORK RVR RNG VA  1100   54     320/ 19/ 22 1011.3R
YORKTOWN VA      1100   54 65  290/ 17/ 20 1011.6S
JAMESTOWN VA     1100   53     330/ 17/ 23   N/A
DOMINION TERM VA 1100   55     330/ 21/ 28 1012.1R
KIPTOPEKE VA     1100      64  320/ 23/ 27   N/A
CHES BAY BRIDGE  1100   55 65  300/ 22/ 27 1011.1R
CAPE HENRY VA    1100   55     310/ 24/ 31 1010.0S
CHESAPEAKE LGHT  1000   56     310/ 31/ 34 1011.1R
WILLOUBY STN VA  1100   54     310/ 17/ 21 1010.7R
S CRANEY ISL VA  1100          290/ 17/ 25 1011.7S
CAPE HENRY BUOY  1000      68                N/A     7/ 6   2/11
1ST LANDING BUOY 1100   57     310/ 23/ 31 1010.9S
CAPE CHARLES BUO 1100      67                N/A     5/ 9   3/ 9
64NM E OF VA BCH 1100   59 71  310/ 27/ 35 1007.7R  11/ 9   5/16
DUCK PIER NC     1100   53 67  310/ 18/ 22 1010.7R
44100 DUCK FRF   1100      69                N/A     8/ 8   2/11
44056 DUCK FRF   1100                        N/A     6/ 9   2/11
OREGON INLET NC  1100   54 61  300/ 18/ 25 1011.4S
HATTERAS NC      1100   56 64  310/ 22/ 26 1012.9S
DIAMOND SHLS NC  1100   58     300/ 25/ 31 1011.7S   6/ 5   2/ 9
CAPE LOOKOUT NC  1100   55     310/ 15/ 18 1014.3R
$$



USA.gov is the U.S. government's official web portal to all federal, state and local government web resources and services.